When you browse on this site, cookies collect data to enhance your experience and personalize the content and advertising you see.
Visit our Privacy Policy to learn more. By continuing to use the site, you agree to this use of cookies and data.
  • En España
  • Lista de países
  • Para 7 días
  • Temperatura del agua
  • El tiempo en el mapa
  • Informadores
  • user-avatar
    Iniciar sesión

    Tiempo cada hora London

    Hoy, 4 Junio, Jueves

    Tiempo Temperatura Precipitaciones Viento Presión Humedad
    00:00 +10°C° 0.1 mm 5 mps 753 mmHg 87%
    01:00 +10°C° 0 mm 5 mps 753 mmHg 86%
    02:00 +10°C° 0 mm 5 mps 752 mmHg 85%
    03:00 +9°C° 0 mm 5 mps 752 mmHg 85%
    04:00 +9°C° 0 mm 5 mps 752 mmHg 85%
    05:00 +9°C° 0 mm 5 mps 751 mmHg 84%
    06:00 +9°C° 0 mm 5 mps 751 mmHg 84%
    07:00 +9°C° 0 mm 5 mps 751 mmHg 81%
    08:00 +10°C° 0 mm 5 mps 751 mmHg 78%
    09:00 +10°C° 0 mm 5 mps 751 mmHg 75%
    10:00 +13°C° 0 mm 5 mps 751 mmHg 68%
    11:00 +14°C° 0 mm 5 mps 750 mmHg 62%
    12:00 +15°C° 0 mm 5 mps 750 mmHg 56%
    13:00 +15°C° 0.1 mm 5 mps 750 mmHg 54%
    14:00 +15°C° 0.1 mm 5 mps 750 mmHg 53%
    15:00 +16°C° 0.1 mm 5 mps 749 mmHg 51%
    16:00 +15°C° 0.1 mm 4 mps 749 mmHg 56%
    17:00 +15°C° 0.1 mm 4 mps 749 mmHg 61%
    18:00 +14°C° 0.1 mm 3 mps 749 mmHg 65%
    19:00 +13°C° 0.1 mm 3 mps 749 mmHg 70%
    20:00 +12°C° 0.1 mm 3 mps 749 mmHg 75%
    21:00 +11°C° 0.1 mm 3 mps 749 mmHg 80%
    22:00 +10°C° 0.1 mm 3 mps 748 mmHg 82%
    23:00 +10°C° 0.1 mm 3 mps 748 mmHg 84%

    Mañana, 5 Junio, Viernes

    Tiempo Temperatura Precipitaciones Viento Presión Humedad
    00:00 +10°C° 0.1 mm 3 mps 748 mmHg 86%
    01:00 +10°C° 0.1 mm 4 mps 747 mmHg 86%
    02:00 +10°C° 0.1 mm 4 mps 746 mmHg 87%
    03:00 +10°C° 0.1 mm 4 mps 746 mmHg 88%
    04:00 +9°C° 0 mm 5 mps 746 mmHg 85%
    05:00 +9°C° 0 mm 5 mps 745 mmHg 82%
    06:00 +9°C° 0 mm 6 mps 745 mmHg 79%
    07:00 +10°C° 0 mm 7 mps 745 mmHg 74%
    08:00 +10°C° 0 mm 7 mps 745 mmHg 68%
    09:00 +11°C° 0 mm 7 mps 746 mmHg 62%
    10:00 +12°C° 0.2 mm 7 mps 746 mmHg 60%
    11:00 +12°C° 0.2 mm 7 mps 746 mmHg 59%
    12:00 +14°C° 0.2 mm 7 mps 746 mmHg 57%
    13:00 +15°C° 0.3 mm 7 mps 746 mmHg 53%
    14:00 +15°C° 0.3 mm 7 mps 746 mmHg 49%
    15:00 +16°C° 0.3 mm 7 mps 746 mmHg 46%
    16:00 +15°C° 0 mm 7 mps 746 mmHg 48%
    17:00 +15°C° 0 mm 6 mps 745 mmHg 50%
    18:00 +14°C° 0 mm 6 mps 745 mmHg 52%
    19:00 +13°C° 0 mm 6 mps 746 mmHg 57%
    20:00 +10°C° 0 mm 6 mps 746 mmHg 62%
    21:00 +9°C° 0 mm 5 mps 747 mmHg 67%
    22:00 +8°C° 0 mm 5 mps 747 mmHg 68%
    23:00 +8°C° 0 mm 5 mps 747 mmHg 69%

    Pasado mañana, 6 Junio, Sábado

    Tiempo Temperatura Precipitaciones Viento Presión Humedad
    00:00 +7°C° 0 mm 5 mps 747 mmHg 70%
    01:00 +7°C° 0 mm 5 mps 747 mmHg 70%
    02:00 +6°C° 0 mm 5 mps 747 mmHg 70%
    03:00 +6°C° 0 mm 5 mps 747 mmHg 70%
    04:00 +7°C° 0 mm 6 mps 747 mmHg 67%
    05:00 +6°C° 0 mm 7 mps 747 mmHg 65%
    06:00 +6°C° 0 mm 8 mps 747 mmHg 63%
    07:00 +9°C° 0 mm 8 mps 747 mmHg 61%
    08:00 +10°C° 0 mm 8 mps 747 mmHg 58%
    09:00 +11°C° 0 mm 9 mps 747 mmHg 56%
    10:00 +11°C° 0 mm 9 mps 747 mmHg 58%
    11:00 +11°C° 0 mm 9 mps 747 mmHg 60%
    12:00 +11°C° 0 mm 9 mps 746 mmHg 62%
    13:00 +11°C° 0.1 mm 9 mps 747 mmHg 66%
    14:00 +11°C° 0.1 mm 9 mps 747 mmHg 70%
    15:00 +11°C° 0.1 mm 9 mps 747 mmHg 73%
    16:00 +11°C° 0.1 mm 8 mps 747 mmHg 73%
    17:00 +11°C° 0.1 mm 8 mps 747 mmHg 72%
    18:00 +12°C° 0.1 mm 8 mps 747 mmHg 72%
    19:00 +11°C° 0.2 mm 7 mps 748 mmHg 75%
    20:00 +10°C° 0.2 mm 6 mps 748 mmHg 77%
    21:00 +10°C° 0.2 mm 6 mps 749 mmHg 80%
    22:00 +9°C° 0.1 mm 5 mps 749 mmHg 82%
    23:00 +10°C° 0.1 mm 4 mps 749 mmHg 85%

    7 Junio, Domingo

    Tiempo Temperatura Precipitaciones Viento Presión Humedad
    00:00 +10°C° 0.1 mm 4 mps 749 mmHg 87%
    01:00 +8°C° 0 mm 4 mps 750 mmHg 87%
    02:00 +8°C° 0 mm 4 mps 750 mmHg 88%
    03:00 +8°C° 0 mm 4 mps 751 mmHg 89%
    04:00 +9°C° 0 mm 3 mps 751 mmHg 87%
    05:00 +10°C° 0 mm 3 mps 752 mmHg 85%
    06:00 +10°C° 0 mm 3 mps 752 mmHg 84%
    07:00 +12°C° 0 mm 3 mps 752 mmHg 77%
    08:00 +14°C° 0 mm 3 mps 753 mmHg 71%
    09:00 +16°C° 0 mm 3 mps 754 mmHg 64%
    10:00 +18°C° 0.2 mm 3 mps 754 mmHg 61%
    11:00 +19°C° 0.2 mm 3 mps 754 mmHg 57%
    12:00 +20°C° 0.2 mm 3 mps 754 mmHg 53%
    13:00 +19°C° 0.4 mm 3 mps 754 mmHg 56%
    14:00 +19°C° 0.4 mm 3 mps 755 mmHg 58%
    15:00 +19°C° 0.4 mm 4 mps 755 mmHg 60%
    16:00 +19°C° 0.6 mm 3 mps 755 mmHg 63%
    17:00 +18°C° 0.6 mm 3 mps 755 mmHg 66%
    18:00 +18°C° 0.6 mm 2 mps 756 mmHg 70%
    19:00 +17°C° 0.2 mm 2 mps 756 mmHg 74%
    20:00 +15°C° 0.2 mm 2 mps 757 mmHg 79%
    21:00 +14°C° 0.2 mm 2 mps 757 mmHg 83%
    22:00 +13°C° 0 mm 2 mps 758 mmHg 86%
    23:00 +12°C° 0 mm 3 mps 758 mmHg 88%

    8 Junio, Lunes

    Tiempo Temperatura Precipitaciones Viento Presión Humedad
    00:00 +11°C° 0 mm 3 mps 758 mmHg 90%
    01:00 +11°C° 0 mm 3 mps 758 mmHg 91%
    02:00 +10°C° 0 mm 3 mps 759 mmHg 91%
    03:00 +10°C° 0 mm 3 mps 759 mmHg 92%
    04:00 +10°C° 0.2 mm 3 mps 759 mmHg 92%
    05:00 +11°C° 0.2 mm 3 mps 760 mmHg 92%
    06:00 +12°C° 0.2 mm 4 mps 760 mmHg 92%
    07:00 +12°C° 0.2 mm 4 mps 761 mmHg 90%
    08:00 +13°C° 0.2 mm 4 mps 761 mmHg 88%
    09:00 +13°C° 0.2 mm 4 mps 762 mmHg 85%
    10:00 +13°C° 0.1 mm 4 mps 762 mmHg 82%
    11:00 +14°C° 0.1 mm 4 mps 762 mmHg 79%
    12:00 +14°C° 0.1 mm 4 mps 762 mmHg 76%
    13:00 +15°C° 0.1 mm 4 mps 763 mmHg 73%
    14:00 +15°C° 0.1 mm 4 mps 763 mmHg 69%
    15:00 +17°C° 0.1 mm 4 mps 763 mmHg 65%
    16:00 +15°C° 0.1 mm 4 mps 763 mmHg 66%
    17:00 +15°C° 0.1 mm 4 mps 763 mmHg 68%
    18:00 +14°C° 0.1 mm 4 mps 763 mmHg 69%
    19:00 +13°C° 0 mm 4 mps 764 mmHg 71%
    20:00 +11°C° 0 mm 3 mps 764 mmHg 73%
    21:00 +10°C° 0 mm 3 mps 765 mmHg 75%
    22:00 +9°C° 0 mm 3 mps 765 mmHg 76%
    23:00 +8°C° 0 mm 2 mps 765 mmHg 77%

    9 Junio, Martes

    Tiempo Temperatura Precipitaciones Viento Presión Humedad
    00:00 +8°C° 0 mm 2 mps 766 mmHg 78%
    01:00 +8°C° 0 mm 2 mps 765 mmHg 78%
    02:00 +8°C° 0 mm 2 mps 765 mmHg 78%
    03:00 +7°C° 0 mm 2 mps 765 mmHg 78%
    04:00 +8°C° 0 mm 2 mps 765 mmHg 75%
    05:00 +9°C° 0 mm 2 mps 766 mmHg 73%
    06:00 +9°C° 0 mm 3 mps 766 mmHg 71%
    07:00 +11°C° 0 mm 3 mps 766 mmHg 66%
    08:00 +12°C° 0 mm 3 mps 766 mmHg 61%
    09:00 +14°C° 0 mm 3 mps 766 mmHg 55%
    10:00 +14°C° 0 mm 3 mps 766 mmHg 54%
    11:00 +16°C° 0 mm 3 mps 766 mmHg 53%
    12:00 +17°C° 0 mm 3 mps 766 mmHg 52%
    13:00 +17°C° 0 mm 2 mps 765 mmHg 53%
    14:00 +17°C° 0 mm 2 mps 765 mmHg 54%
    15:00 +17°C° 0 mm 2 mps 765 mmHg 56%
    16:00 +17°C° 0 mm 2 mps 765 mmHg 58%
    17:00 +17°C° 0 mm 2 mps 764 mmHg 60%
    18:00 +17°C° 0 mm 2 mps 764 mmHg 62%
    19:00 +16°C° 0 mm 2 mps 764 mmHg 66%
    20:00 +15°C° 0 mm 2 mps 764 mmHg 70%
    21:00 +13°C° 0 mm 3 mps 764 mmHg 74%
    22:00 +13°C° 0 mm 3 mps 764 mmHg 77%
    23:00 +13°C° 0 mm 3 mps 763 mmHg 80%
    Mostrar más